Regional Weather Roundup
Issued by NWS

Home | Current Version | Previous Version | Graphics & Text | Print | Product List | Glossary On
Versions: 1 2 3 4 5 6 7 8 9 10 11 12 13 14 15 16 17 18 19 20 21 22 23 24 25 26 27 28
000
ASUS45 KTFX 250210
RWRMT
MONTANA REGIONAL WEATHER ROUNDUP
NATIONAL WEATHER SERVICE GREAT FALLS MT
800 PM MDT MON JUL 24 2017

NOTE: "FAIR" INDICATES FEW OR NO CLOUDS BELOW 12000 FEET WITH NO
SIGNIFICANT WEATHER AND/OR OBSTRUCTIONS TO VISIBILITY.

MTZ001>007-043-250300-
WEST OF THE DIVIDE

CITY           SKY/WX    TMP DP  RH WIND       PRES   REMARKS
KALISPELL      SUNNY     84  29  13 NW5       29.87R
MISSOULA       PTSUNNY   85  30  13 W8        29.88R
BUTTE          CLOUDY    83  31  15 NW10      30.02S
MULLAN PASS    SUNNY     68  30  24 VRB3      30.12R
ANACONDA         N/A     82  30  15 W8        29.98S
DEER LODGE       N/A     81  36  19 NW12G20   29.98R
EUREKA           N/A     81  32  17 MISG      29.89R
HAMILTON         N/A     84  43  23 SW3       29.91R
LIBBY            N/A     84  28  13 NW3       29.88R
PLAINS           N/A     85  37  18 W8        29.89R
THOMPSON FALLS   N/A     87  30  13 NW7       29.92
$$

MTZ008-052>055-250300-
SOUTHWEST MONTANA

CITY           SKY/WX    TMP DP  RH WIND       PRES   REMARKS
BOZEMAN        CLOUDY    79  44  28 SW18G30   29.96R
DILLON         CLOUDY    73  48  41 SW9       30.00F
ENNIS          PTCLDY    73  39  29 VRB6G16   30.11S
THREE FORKS      N/A     82  44  26 S22       29.94R
TWIN BRIDGES     N/A     79  42  26 CALM      30.00F
$$

MTZ009-010-012-014-046-048-049-054-250300-
EAST SLOPES AND CENTRAL MONTANA

CITY           SKY/WX    TMP DP  RH WIND       PRES   REMARKS
CUT BANK       SUNNY     74  38  27 NE16      29.93R
GREAT FALLS    CLOUDY    82  44  26 NE13      29.88R
HELENA         CLOUDY    88  36  15 NW8       29.88R
CHOTEAU          N/A     81  41  24 NE10      29.92R
CONRAD           N/A     79  47  32 N5        29.94R
$$

MTZ011-013-016-021-045-047-050-051-250300-
NORTH CENTRAL MONTANA

CITY           SKY/WX    TMP DP  RH WIND       PRES   REMARKS
HAVRE          CLEAR     80  38  22 N17       29.87R
LEWISTOWN      PTCLDY    79  46  31 E10       29.91R
N BAR RANCH      N/A     75  45  33 E7        29.97S
CHINOOK          N/A     81  41  24 NW6       29.86R
$$

MTZ017>020-022>027-061-062-250300-
NORTHEAST MONTANA

CITY           SKY/WX    TMP DP  RH WIND       PRES   REMARKS
GLASGOW        CLEAR     84  41  21 NE3       29.83S
JORDAN           N/A     84  44  24 NE3       29.85R
SIDNEY         PTCLDY    85  51  31 N9        29.81R
WOLF POINT     PTCLDY    87  42  20 NW9       29.82S
MALTA          CLEAR     82  41  23 NW7       29.84R
PLENTYWOOD       N/A     79  45  29 N10       29.85R
POPLAR           N/A     84  45  24 N6        29.82S
SCOBEY           N/A     78  44  29 N2        29.86S
$$

MTZ028>42-056>058-250300-
SOUTHCENTRAL AND SOUTHEAST MONTANA

CITY           SKY/WX    TMP DP  RH WIND       PRES   REMARKS
BAKER          CLEAR     87  50  27 NE14      29.85R
BILLINGS       MOCLDY    89  43  20 SE9       29.86F
LIVINGSTON     CLOUDY    81  40  23 SW26G43   29.95R
MILES CITY     CLEAR     87  44  22 N8        29.83R
BIG TIMBER     CLEAR     82  39  21 W18G25    29.95R
EKALAKA          N/A     86  47  25 N6        29.88R
FORSYTH          N/A     86  46  25 NE5       29.83S
LAUREL           N/A     86  47  25 CALM      29.88R
$$

REGIONAL REPORTS...DAKOTAS

CITY           SKY/WX    TMP DP  RH WIND       PRES   REMARKS
WILLISTON      CLOUDY    87  47  24 N15       29.81R
MINOT          MOCLDY    83  63  50 NW10      29.76R
DICKINSON      MOCLDY    87  54  32 N12       29.80R
BEACH            N/A     84  48  28 N9G16     29.87R
CROSBY           N/A     77  50  38 NW8G15    29.82S
TIOGA            N/A     77  50  38 NE7       29.84R
WATFORD CITY     N/A     82  55  39 N8        29.80R
BISMARCK       CLOUDY    80  67  64 SE9       29.81R
GRAND FORKS    MOCLDY    74  65  73 S13       29.86R
RAPID CITY     CLEAR     88  50  27 NE8       29.83S
$$

REGIONAL REPORTS...WYOMING/IDAHO/WASHINGTON

CITY           SKY/WX    TMP DP  RH WIND       PRES   REMARKS
GILLETTE       CLEAR     88  43  20 NE16      29.90R
SHERIDAN       CLEAR     86  48  26 NE7       29.88S
BUFFALO WY     CLOUDY    84  41  21 NW7       29.97R
CODY           PTCLDY    77  43  29 NW14G25   30.02R
YELLOWSTONE LA   N/A     59  47  64 CALM      30.29F
IDAHO FALLS    CLOUDY    82  48  30 E6        29.99S
BOISE          CLOUDY    91  52  26 W9        29.82S
SPOKANE        MOSUNNY   84  31  14 W6        29.91S
$$

REGIONAL REPORTS...ALBERTA

CITY           SKY/WX    TMP DP  RH WIND       PRES   REMARKS
EDMONTON       CLOUDY    57  54  88 W12G17    29.92S
CALGARY        MOSUNNY   63  43  48 N17       30.03R
LETHBRIDGE     PTSUNNY   72  41  33 NE13G18   29.95R
MEDICINE HAT   MOSUNNY   72  41  33 NW13G20   29.91R
WATERTON GATE    N/A     68  50  52 CALM        N/A
CARDSTON         N/A     68  41  37 NE13G18     N/A
MILK RIVER       N/A     70  41  35 NE14        N/A
ONEFOUR          N/A     72  34  25 N18G24      N/A
$$

REGIONAL REPORTS...SASKATCHEWAN

CITY           SKY/WX    TMP DP  RH WIND       PRES   REMARKS
SWIFT CURRENT  CLEAR     70  37  30 W18G29    29.87S
REGINA         PTCLDY    72  41  33 W9        29.82S
SASKATOON      LGT RAIN  59  50  72 W22G37    29.73S
VAL MARIE        N/A     75  37  25 N17G24      N/A
ROCKGLEN         N/A     72  39  30 NW7         N/A
$$




USA.gov is the U.S. government's official web portal to all federal, state and local government web resources and services.